| time (UTC) | temp C | wind direction | speed KPH | gust KPH | rain 1hr cm | rain 24hr cm | rain mn cm | humidity % | barometer mb |
| 20260508023048 | 1 | 240 | 0.0 | 0.0 | 0.00 | 0.00 | 0.00 | 92 | 1019.7 |
| 20260508021546 | 1 | 240 | 0.0 | 0.0 | 0.00 | 0.00 | 0.00 | 91 | 1019.9 |
| 20260508020043 | 1 | 241 | 0.0 | 0.0 | 0.00 | 0.00 | 0.00 | 91 | 1019.9 |
| 20260508014542 | 1 | 242 | 0.0 | 0.0 | 0.00 | 0.00 | 0.00 | 91 | 1019.6 |
| 20260508013040 | 1 | 242 | 0.0 | 0.0 | 0.00 | 0.00 | 0.00 | 91 | 1019.4 |
| 20260508011540 | 1 | 244 | 0.0 | 0.0 | 0.00 | 0.00 | 0.00 | 91 | 1019.4 |
| 20260508010042 | 1 | 244 | 0.0 | 0.0 | 0.00 | 0.00 | 0.00 | 90 | 1019.4 |
| 20260508004534 | 1 | 244 | 0.0 | 0.0 | 0.00 | 0.00 | 0.00 | 90 | 1019.1 |
| 20260508003033 | 2 | 244 | 0.0 | 0.0 | 0.00 | 0.00 | 0.00 | 90 | 1019.2 |
| 20260508001535 | 2 | 244 | 0.0 | 0.0 | 0.00 | 0.00 | 0.00 | 90 | 1019.1 |
| 20260508000031 | 2 | 244 | 0.0 | 0.0 | 0.00 | 0.00 | 0.00 | 90 | 1018.8 |
| 20260507234535 | 2 | 246 | 0.0 | 0.0 | 0.00 | 0.00 | 0.00 | 90 | 1018.7 |
| 20260507233027 | 2 | 237 | 0.0 | 0.0 | 0.00 | 0.00 | 0.00 | 90 | 1018.7 |
| 20260507231525 | 2 | 252 | 3.2 | 0.0 | 0.00 | 0.00 | 0.00 | 91 | 1018.6 |
| 20260507230022 | 1 | 89 | 1.6 | 0.0 | 0.00 | 0.00 | 0.00 | 90 | 1018.3 |
| 20260507224526 | 2 | 72 | 0.0 | 0.0 | 0.00 | 0.00 | 0.00 | 89 | 1018.3 |
| 20260507223017 | 2 | 72 | 1.6 | 0.0 | 0.00 | 0.00 | 0.00 | 89 | 1018.1 |
| 20260507221518 | 2 | 84 | 3.2 | 0.0 | 0.00 | 0.00 | 0.00 | 90 | 1017.8 |
| 20260507220013 | 2 | 360 | 0.0 | 0.0 | 0.00 | 0.00 | 0.15 | 88 | 1017.6 |
| 20260507214510 | 2 | 360 | 0.0 | 0.0 | 0.00 | 0.00 | 0.15 | 88 | 1017.8 |
| 20260507213018 | 2 | 360 | 0.0 | 0.0 | 0.00 | 0.00 | 0.15 | 88 | 1017.7 |
| 20260507211508 | 2 | 360 | 0.0 | 0.0 | 0.00 | 0.00 | 0.15 | 88 | 1017.6 |
| 20260507210023 | 2 | 309 | 0.0 | 0.0 | 0.00 | 0.00 | 0.15 | 86 | 1017.5 |
| 20260507204507 | 2 | 309 | 0.0 | 0.0 | 0.00 | 0.00 | 0.15 | 86 | 1017.4 |
| 20260507203010 | 3 | 309 | 0.0 | 0.0 | 0.00 | 0.00 | 0.15 | 85 | 1017.2 |
| 20260507201513 | 3 | 308 | 0.0 | 0.0 | 0.00 | 0.00 | 0.15 | 84 | 1017.0 |
| 20260507200011 | 3 | 308 | 0.0 | 0.0 | 0.00 | 0.00 | 0.15 | 84 | 1016.9 |
| 20260507194502 | 3 | 309 | 0.0 | 0.0 | 0.00 | 0.00 | 0.15 | 84 | 1016.8 |
| 20260507193132 | 3 | 309 | 0.0 | 0.0 | 0.00 | 0.00 | 0.15 | 85 | 1016.6 |
| 20260507191603 | 3 | 311 | 3.2 | 0.0 | 0.00 | 0.00 | 0.15 | 84 | 1016.4 |
| 20260507190059 | 3 | 279 | 4.8 | 0.0 | 0.00 | 0.00 | 0.15 | 83 | 1016.5 |
| 20260507184559 | 4 | 262 | 0.0 | 0.0 | 0.00 | 0.00 | 0.15 | 81 | 1016.5 |
| 20260507183102 | 5 | 304 | 0.0 | 0.0 | 0.00 | 0.00 | 0.15 | 80 | 1016.1 |
| 20260507181555 | 5 | 293 | 1.6 | 0.0 | 0.00 | 0.00 | 0.15 | 80 | 1016.1 |
| 20260507180057 | 5 | 308 | 1.6 | 0.0 | 0.00 | 0.00 | 0.15 | 79 | 1015.7 |
| 20260507174600 | 5 | 289 | 1.6 | 0.0 | 0.00 | 0.00 | 0.15 | 77 | 1015.9 |
| 20260507173128 | 5 | 239 | 3.2 | 0.0 | 0.00 | 0.00 | 0.15 | 76 | 1015.6 |
| 20260507171551 | 6 | 227 | 3.2 | 0.0 | 0.00 | 0.00 | 0.15 | 74 | 1015.6 |
| 20260507170053 | 6 | 229 | 4.8 | 0.0 | 0.00 | 0.00 | 0.15 | 74 | 1015.5 |
| 20260507164557 | 7 | 228 | 3.2 | 0.0 | 0.00 | 0.00 | 0.15 | 74 | 1015.5 |
| 20260507163049 | 6 | 240 | 3.2 | 0.0 | 0.00 | 0.00 | 0.15 | 76 | 1015.3 |
| 20260507161603 | 6 | 306 | 3.2 | 0.0 | 0.00 | 0.00 | 0.15 | 80 | 1015.3 |
| 20260507154548 | 5 | 299 | 4.8 | 0.0 | 0.00 | 0.00 | 0.15 | 80 | 1015.5 |
| 20260507153047 | 5 | 299 | 4.8 | 0.0 | 0.00 | 0.00 | 0.15 | 79 | 1015.4 |
| 20260507151546 | 5 | 252 | 11.3 | 0.0 | 0.00 | 0.00 | 0.15 | 79 | 1015.4 |
| 20260507150045 | 5 | 199 | 4.8 | 0.0 | 0.00 | 0.00 | 0.15 | 78 | 1015.3 |
| 20260507144556 | 5 | 254 | 4.8 | 0.0 | 0.00 | 0.00 | 0.15 | 78 | 1015.3 |
| 20260507143045 | 5 | 279 | 8.0 | 0.0 | 0.00 | 0.00 | 0.15 | 78 | 1015.1 |
| 20260507141542 | 6 | 258 | 8.0 | 0.0 | 0.00 | 0.00 | 0.15 | 78 | 1015.0 |
| 20260507140042 | 6 | 216 | 6.4 | 0.0 | 0.00 | 0.00 | 0.15 | 77 | 1014.8 |
| 20260507134539 | 6 | 249 | 4.8 | 0.0 | 0.00 | 0.00 | 0.15 | 75 | 1014.6 |
| 20260507133040 | 7 | 280 | 4.8 | 0.0 | 0.00 | 0.00 | 0.15 | 73 | 1014.5 |
| 20260507131537 | 8 | 242 | 6.4 | 0.0 | 0.00 | 0.00 | 0.15 | 74 | 1014.6 |
| 20260507130039 | 7 | 224 | 6.4 | 0.0 | 0.00 | 0.00 | 0.15 | 76 | 1014.4 |
| 20260507124531 | 7 | 255 | 8.0 | 0.0 | 0.00 | 0.00 | 0.15 | 75 | 1014.4 |
| 20260507123039 | 6 | 243 | 6.4 | 0.0 | 0.00 | 0.00 | 0.15 | 78 | 1014.3 |
| 20260507121529 | 6 | 246 | 4.8 | 0.0 | 0.00 | 0.00 | 0.15 | 83 | 1014.3 |
| 20260507120029 | 5 | 304 | 3.2 | 0.0 | 0.00 | 0.00 | 0.15 | 86 | 1014.4 |
| 20260507114527 | 4 | 296 | 1.6 | 0.0 | 0.00 | 0.00 | 0.15 | 86 | 1014.2 |
| 20260507113028 | 4 | 277 | 9.7 | 0.0 | 0.00 | 0.00 | 0.15 | 83 | 1014.1 |
| 20260507111525 | 5 | 244 | 9.7 | 0.0 | 0.00 | 0.00 | 0.13 | 81 | 1013.7 |
| 20260507110029 | 6 | 252 | 1.6 | 0.0 | 0.00 | 0.00 | 0.13 | 79 | 1013.5 |
| 20260507104523 | 5 | 182 | 3.2 | 0.0 | 0.00 | 0.00 | 0.13 | 83 | 1013.5 |
| 20260507103023 | 6 | 191 | 6.4 | 0.0 | 0.00 | 0.00 | 0.08 | 78 | 1013.5 |
| 20260507101520 | 6 | 236 | 6.4 | 0.0 | 0.00 | 0.00 | 0.08 | 81 | 1013.3 |
| 20260507100022 | 6 | 227 | 3.2 | 0.0 | 0.00 | 0.00 | 0.08 | 77 | 1013.3 |
| 20260507094520 | 6 | 192 | 4.8 | 0.0 | 0.00 | 0.00 | 0.08 | 76 | 1013.1 |
| 20260507093015 | 6 | 276 | 4.8 | 0.0 | 0.00 | 0.00 | 0.08 | 73 | 1013.0 |
| 20260507091513 | 7 | 248 | 3.2 | 0.0 | 0.00 | 0.00 | 0.08 | 71 | 1013.0 |
| 20260507090013 | 7 | 194 | 3.2 | 0.0 | 0.00 | 0.00 | 0.08 | 73 | 1012.8 |
| 20260507084513 | 6 | 212 | 3.2 | 0.0 | 0.00 | 0.00 | 0.08 | 74 | 1012.6 |
| 20260507083006 | 7 | 291 | 1.6 | 0.0 | 0.00 | 0.00 | 0.08 | 70 | 1012.5 |
| 20260507081504 | 7 | 277 | 0.0 | 0.0 | 0.00 | 0.00 | 0.08 | 69 | 1012.3 |
| 20260507080001 | 6 | 277 | 0.0 | 0.0 | 0.00 | 0.00 | 0.08 | 73 | 1012.3 |
| 20260507074601 | 5 | 280 | 1.6 | 0.0 | 0.00 | 0.00 | 0.08 | 74 | 1012.2 |
| 20260507073057 | 5 | 280 | 1.6 | 0.0 | 0.00 | 0.00 | 0.08 | 73 | 1012.0 |
| 20260507071554 | 6 | 266 | 1.6 | 0.0 | 0.00 | 0.00 | 0.08 | 74 | 1011.9 |
| 20260507070055 | 6 | 238 | 0.0 | 0.0 | 0.00 | 0.00 | 0.08 | 74 | 1011.8 |
| 20260507064606 | 6 | 236 | 0.0 | 0.0 | 0.00 | 0.00 | 0.08 | 76 | 1011.7 |
| 20260507063052 | 6 | 126 | 3.2 | 0.0 | 0.00 | 0.00 | 0.08 | 76 | 1011.5 |
| 20260507061545 | 5 | 137 | 4.8 | 0.0 | 0.00 | 0.00 | 0.08 | 76 | 1011.5 |
| 20260507060043 | 5 | 125 | 3.2 | 0.0 | 0.00 | 0.00 | 0.08 | 78 | 1011.5 |
| 20260507054543 | 5 | 121 | 6.4 | 0.0 | 0.00 | 0.00 | 0.08 | 80 | 1011.3 |
| 20260507053039 | 5 | 143 | 1.6 | 0.0 | 0.00 | 0.00 | 0.08 | 82 | 1011.1 |
| 20260507051535 | 3 | 136 | 6.4 | 0.0 | 0.00 | 0.00 | 0.08 | 84 | 1010.9 |
| 20260507050039 | 3 | 112 | 3.2 | 0.0 | 0.00 | 0.00 | 0.08 | 86 | 1011.0 |
| 20260507044531 | 3 | 80 | 3.2 | 0.0 | 0.00 | 0.00 | 0.08 | 88 | 1010.9 |
| 20260507043029 | 3 | 105 | 3.2 | 0.0 | 0.00 | 0.00 | 0.08 | 89 | 1010.8 |
| 20260507041545 | 3 | 72 | 3.2 | 0.0 | 0.00 | 0.00 | 0.08 | 91 | 1010.7 |
| 20260507040024 | 2 | 126 | 6.4 | 0.0 | 0.00 | 0.00 | 0.08 | 92 | 1010.6 |
| 20260507034522 | 2 | 107 | 6.4 | 0.0 | 0.00 | 0.00 | 0.08 | 92 | 1010.6 |
| 20260507033020 | 2 | 126 | 8.0 | 0.0 | 0.00 | 0.00 | 0.08 | 93 | 1010.6 |
| 20260507031518 | 2 | 124 | 4.8 | 0.0 | 0.00 | 0.00 | 0.08 | 93 | 1010.5 |
| 20260507030016 | 2 | 90 | 1.6 | 0.0 | 0.00 | 0.00 | 0.08 | 93 | 1010.2 |
| 20260507024516 | 2 | 119 | 4.8 | 0.0 | 0.00 | 0.00 | 0.08 | 93 | 1010.3 |